Overview Statistics Trail Chart Weather Telemetry Raw packets
 

This is the latest recevied weather packets stored in our database for station/object KB4MOX. If no packets are shown the sender has not sent any weather packets the latest 10 day(s).

<< 70 71 72 73 74 75 76 >>
Time Temp. Humidity Pressure Rain* Wind** Luminosity Snow
1788118036 33.33° C 53% 1019.9 hPa 0 mm - 733 W/m² -
1788117731 33.33° C 53% 1019.8 hPa 0 mm - 723 W/m² -
1788117427 33.33° C 53% 1020 hPa 0 mm - 741 W/m² -
1788117120 32.78° C 54% 1019.8 hPa 0 mm - 745 W/m² -
1788116816 32.78° C 54% 1020.1 hPa 0 mm - 738 W/m² -
1788116511 32.78° C 55% 1020 hPa 0 mm - 740 W/m² -
1788116209 32.22° C 54% 1020.1 hPa 0 mm - 741 W/m² -
1788115905 32.78° C 52% 1020.2 hPa 0 mm - 751 W/m² -
1788115604 32.22° C 52% 1020.3 hPa 0 mm - 760 W/m² -
1788115300 32.22° C 54% 1020.2 hPa 0 mm - 774 W/m² -
1788115000 32.22° C 55% 1020.3 hPa 0 mm - 779 W/m² -
1788114695 32.78° C 56% 1020.6 hPa 0 mm - 813 W/m² -
1788114396 32.22° C 56% 1020.5 hPa 0 mm - 849 W/m² -
1788114092 31.11° C 57% 1020.6 hPa 0 mm - 794 W/m² -
1788113787 30.56° C 59% 1020.7 hPa 0 mm - 818 W/m² -
1788113487 30.56° C 60% 1021 hPa 0 mm - 657 W/m² -
1788113186 31.11° C 58% 1020.9 hPa 0 mm - 365 W/m² -
1788112887 31.11° C 60% 1021.1 hPa 0 mm - 832 W/m² -
1788112585 31.11° C 59% 1021.1 hPa 0 mm - 832 W/m² -
1788112281 30° C 62% 1021.3 hPa 0 mm - 880 W/m² -
1788111976 30° C 64% 1021.4 hPa 0 mm - 569 W/m² -
1788111672 29.44° C 65% 1021.5 hPa 0 mm - 286 W/m² -
1788111367 29.44° C 65% 1021.3 hPa 0 mm - 180 W/m² -
1788111061 29.44° C 64% 1021.6 hPa 0 mm - 143 W/m² -
1788110759 30.56° C 64% 1021.6 hPa 0 mm - 186 W/m² -

* Rain latest hour (hover to see other rain measurements)
** Current wind speed in m/s (hover to see current wind gust speed)